This is the latest recevied weather packets stored in our database for station/object K4ZZR. If no packets are shown the sender has not sent any weather packets the latest 10 day(s).
| Time | Temp. | Humidity | Pressure | Rain* | Wind** | Luminosity | Snow |
|---|---|---|---|---|---|---|---|
| 1777720702 | 22.22° C | 89% | 1010.8 hPa | 0 mm | - | 49 W/m² | - |
| 1777720399 | 21.67° C | 89% | 1011.1 hPa | 0 mm | - | 38 W/m² | - |
| 1777720097 | 21.67° C | 90% | 1011 hPa | 0 mm | - | 33 W/m² | - |
| 1777719795 | 21.67° C | 90% | 1010.9 hPa | 0 mm | - | 25 W/m² | - |
| 1777719492 | 21.67° C | 90% | 1011.2 hPa | 0 mm | - | 17 W/m² | - |
| 1777719188 | 21.67° C | 91% | 1011 hPa | 0 mm | - | 11 W/m² | - |
| 1777718887 | 21.67° C | 90% | 1011.1 hPa | 0 mm | - | 6 W/m² | - |
| 1777718583 | 21.67° C | 91% | 1010.8 hPa | 0 mm | - | 3 W/m² | - |
| 1777718281 | 21.67° C | 91% | 1011.1 hPa | 0 mm | - | 2 W/m² | - |
| 1777717978 | 21.67° C | 91% | 1011.4 hPa | 0 mm | - | 1 W/m² | - |
| 1777717675 | 21.67° C | 91% | 1011.2 hPa | 0 mm | - | 0 W/m² | - |
| 1777717371 | 21.67° C | 90% | 1011.5 hPa | 0 mm | - | 0 W/m² | - |
| 1777717070 | 21.67° C | 90% | 1011.1 hPa | 0 mm | - | 0 W/m² | - |
| 1777716767 | 21.67° C | 91% | 1010.8 hPa | 0 mm | - | 0 W/m² | - |
| 1777716465 | 21.67° C | 91% | 1011.2 hPa | 0 mm | - | 0 W/m² | - |
| 1777716164 | 21.67° C | 91% | 1011 hPa | 0 mm | - | 0 W/m² | - |
| 1777715862 | 21.67° C | 92% | 1010.8 hPa | 0 mm | - | 0 W/m² | - |
| 1777715559 | 21.67° C | 92% | 1011.1 hPa | 0 mm | - | 0 W/m² | - |
| 1777715256 | 21.67° C | 92% | 1011 hPa | 0 mm | - | 0 W/m² | - |
| 1777714954 | 21.67° C | 92% | 1011 hPa | 0 mm | - | 0 W/m² | - |
| 1777714652 | 21.67° C | 92% | 1010.8 hPa | 0 mm | - | 0 W/m² | - |
| 1777714350 | 21.67° C | 93% | 1011 hPa | 0 mm | - | 0 W/m² | - |
| 1777714047 | 22.22° C | 93% | 1010.8 hPa | 0 mm | - | 0 W/m² | - |
| 1777713745 | 22.22° C | 94% | 1010.8 hPa | 0 mm | - | 0 W/m² | - |
| 1777713441 | 22.22° C | 95% | 1010.7 hPa | 0 mm | - | 0 W/m² | - |
* Rain latest hour (hover to see other rain measurements)
** Current wind speed in m/s (hover to see current wind gust speed)